Regional Weather Roundup
Issued by NWS Goodland, KS

Home | Current Version | Previous Version | Text Only | Print | Product List | Glossary Off
Versions: 1 2 3 4 5 6 7 8 9 10 11 12 13 14 15 16 17 18 19 20 21 22 23 24 25 26 27 28 29 30 31 32 33 34 35 36 37 38 39 40 41 42 43 44 45 46 47 48 49 50

409
ASUS43 KGLD 172308
RWRGLD

GOODLAND FORECAST AREA HOURLY WEATHER ROUNDUP
NATIONAL WEATHER SERVICE GOODLAND KS
500 PM MDT TUE OCT 17 2017

...OFFICIAL OBSERVATIONS...

CITY           SKY/WX    TMP DP  RH WIND       PRES   REMARKS
GOODLAND KS    SUNNY     76  26  15 S9        30.05F
HILL CITY KS   CLEAR     80  31  16 S6        30.01F
IMPERIAL NEB   SUNNY     78  16   9 S10       30.00F
MCCOOK NEB     CLEAR     78  30  17 S7        30.00F
AKRON CO       SUNNY     76  13   9 SW10      30.06F
BURLINGTON CO  SUNNY     77  19  11 S10       30.07F
LIMON CO       SUNNY     71  14  11 S7        30.12F
$$

...UNOFFICIAL OBSERVATIONS...

CITY           SKY/WX    TMP DP  RH WIND       PRES   REMARKS
YUMA CO        FAIR      75  21  13 S8        30.03F
$$




USA.gov is the U.S. government's official web portal to all federal, state and local government web resources and services.